FW0879 Weather Reports


Display with metric or nautical units.
time (UTC)temp
F
wind
direction
speed
MPH
gust
MPH
rain 1hr
in
rain 24hr
in
rain mn
in
humidity
%
barometer
mb
20260504070402 65 354 3.0 5.0 0.00 0.00 0.00 82 1010.5
20260504050402 64 211 1.0 2.0 0.00 0.00 0.00 84 1010.1
20260504045902 64 207 1.0 3.0 0.00 0.00 0.00 84 1010.1
20260504045403 64 255 1.0 3.0 0.00 0.00 0.00 84 1010.1
20260504044403 64 204 3.0 5.0 0.00 0.00 0.00 84 1010.2
20260504043903 63 246 2.0 3.0 0.00 0.00 0.00 84 1010.1
20260504043402 63 214 1.0 3.0 0.00 0.00 0.00 84 1010.0
20260504042903 63 217 0.0 3.0 0.00 0.00 0.00 84 1010.0
20260504042402 64 271 2.0 3.0 0.00 0.00 0.00 84 1010.1
20260504041902 64 300 1.0 3.0 0.00 0.00 0.00 84 1010.2
20260504041403 64 215 0.0 3.0 0.00 0.00 0.00 84 1010.2
20260504040903 64 222 2.0 3.0 0.00 0.00 0.00 84 1010.3
20260504040402 64 242 2.0 3.0 0.00 0.00 0.00 84 1010.3
20260504035903 64 249 2.0 3.0 0.00 0.00 0.00 84 1010.4
20260504035403 64 209 2.0 3.0 0.00 0.00 0.00 84 1010.5
20260504034403 64 234 3.0 5.0 0.00 0.00 0.00 84 1010.6
20260504033903 64 263 3.0 5.0 0.00 0.00 0.00 84 1010.7
20260504033402 64 252 2.0 3.0 0.00 0.00 0.00 84 1010.8
20260504032903 64 247 3.0 5.0 0.00 0.00 0.00 84 1010.8
20260504031902 64 292 2.0 3.0 0.00 0.00 0.00 84 1010.7
20260504031402 64 277 2.0 3.0 0.00 0.00 0.00 83 1010.8
20260504030402 64 277 0.0 2.0 0.00 0.00 0.00 83 1010.8
20260504025902 64 277 2.0 3.0 0.00 0.00 0.00 83 1010.9
20260504025402 64 279 0.0 2.0 0.00 0.00 0.00 83 1011.0
20260504024903 64 279 2.0 3.0 0.00 0.00 0.00 83 1011.0
20260504024402 64 256 1.0 2.0 0.00 0.00 0.00 83 1011.0
20260504023902 64 255 2.0 3.0 0.00 0.00 0.00 82 1011.1
20260504023403 64 248 1.0 2.0 0.00 0.00 0.00 82 1011.0
20260504022903 64 234 1.0 3.0 0.00 0.00 0.00 82 1011.1
20260504022402 64 269 1.0 3.0 0.00 0.00 0.00 82 1011.1
20260504021902 65 247 2.0 3.0 0.00 0.00 0.00 81 1011.0
20260504020902 65 331 1.0 3.0 0.00 0.00 0.00 81 1011.0
20260504020402 65 292 1.0 3.0 0.00 0.00 0.00 81 1011.0
20260504015903 65 286 1.0 2.0 0.00 0.00 0.00 81 1011.1
20260504015403 65 261 2.0 3.0 0.00 0.00 0.00 81 1011.3
20260504014902 65 192 0.0 0.0 0.00 0.00 0.00 81 1011.2
20260504014402 65 192 0.0 0.0 0.00 0.00 0.00 81 1011.1
20260504013903 65 192 0.0 1.0 0.00 0.00 0.00 81 1011.3
20260504013403 65 192 1.0 3.0 0.00 0.00 0.00 81 1011.3
20260504012902 65 192 1.0 2.0 0.00 0.00 0.00 81 1011.2
20260504011903 65 192 0.0 2.0 0.00 0.00 0.00 81 1011.1
20260504011402 65 192 1.0 2.0 0.00 0.00 0.00 81 1011.1
20260504010402 65 192 1.0 2.0 0.00 0.00 0.00 81 1011.0
20260504005903 65 192 1.0 2.0 0.00 0.00 0.00 81 1011.0
20260504005402 65 192 0.0 1.0 0.00 0.00 0.00 81 1010.9
20260504004903 65 192 0.0 1.0 0.00 0.00 0.00 80 1010.8
20260504004403 65 192 1.0 1.0 0.00 0.00 0.00 80 1010.9
20260504003903 65 192 0.0 1.0 0.00 0.00 0.00 81 1010.9
20260504003403 65 192 0.0 1.0 0.00 0.00 0.00 80 1011.0
20260504002402 65 192 0.0 2.0 0.00 0.00 0.00 81 1011.0
20260504001402 65 227 0.0 1.0 0.00 0.00 0.00 80 1011.2
20260504000902 65 227 1.0 2.0 0.00 0.00 0.00 80 1011.3
20260504000402 65 264 2.0 3.0 0.00 0.00 0.00 80 1011.4
20260503235903 65 24 0.0 2.0 0.00 0.00 0.00 80 1011.4
20260503235403 65 256 1.0 2.0 0.00 0.00 0.00 80 1011.4
20260503234902 65 160 1.0 2.0 0.00 0.00 0.00 80 1011.5
20260503234402 65 160 0.0 1.0 0.00 0.00 0.00 80 1011.5
20260503233902 65 160 1.0 2.0 0.00 0.00 0.00 80 1011.5
20260503232902 65 160 0.0 2.0 0.00 0.00 0.00 80 1011.7
20260503232402 65 160 1.0 2.0 0.00 0.00 0.00 80 1011.7
20260503231903 65 160 1.0 2.0 0.00 0.00 0.00 80 1011.6
20260503231403 65 160 0.0 1.0 0.00 0.00 0.00 80 1011.8
20260503230903 65 160 1.0 2.0 0.00 0.00 0.00 80 1011.9
20260503230402 65 161 1.0 3.0 0.00 0.00 0.00 80 1011.9
20260503225903 65 219 1.0 2.0 0.00 0.00 0.00 80 1011.9
20260503225403 65 219 1.0 2.0 0.00 0.00 0.00 80 1011.9
20260503224902 65 219 0.0 0.0 0.00 0.00 0.00 80 1011.9
20260503224403 65 219 1.0 2.0 0.00 0.00 0.00 80 1012.0
20260503223903 65 219 0.0 1.0 0.00 0.00 0.00 80 1012.0
20260503223403 65 219 0.0 1.0 0.00 0.00 0.00 80 1012.0
20260503222902 65 219 0.0 1.0 0.00 0.00 0.00 81 1012.0
20260503222402 65 219 0.0 2.0 0.00 0.00 0.00 81 1012.0
20260503221903 65 219 1.0 2.0 0.00 0.00 0.00 81 1011.9
20260503221402 65 219 0.0 1.0 0.00 0.00 0.00 81 1011.9
20260503220902 64 219 0.0 2.0 0.00 0.00 0.00 81 1012.0
20260503220402 64 220 0.0 2.0 0.00 0.00 0.00 81 1012.0
20260503215403 64 277 1.0 2.0 0.00 0.00 0.00 81 1012.1
20260503214903 64 277 0.0 0.0 0.00 0.00 0.00 81 1012.2
20260503214403 64 277 0.0 0.0 0.00 0.00 0.00 81 1012.1
20260503213903 64 277 0.0 1.0 0.00 0.00 0.00 81 1012.2
20260503213402 64 277 0.0 2.0 0.00 0.00 0.00 81 1012.3
20260503212902 64 277 2.0 3.0 0.00 0.00 0.00 81 1012.3
20260503212402 64 277 1.0 2.0 0.00 0.00 0.00 81 1012.2
20260503211903 64 210 1.0 3.0 0.00 0.00 0.00 81 1012.2
20260503211403 64 234 1.0 3.0 0.00 0.00 0.00 81 1012.2
20260503210902 64 250 3.0 3.0 0.00 0.00 0.00 81 1012.0
20260503210402 64 245 3.0 6.0 0.00 0.00 0.00 82 1012.0
20260503205902 64 244 4.0 5.0 0.00 0.00 0.00 81 1012.0
20260503204402 64 212 2.0 3.0 0.00 0.00 0.00 81 1011.9
20260503203902 64 235 1.0 3.0 0.00 0.00 0.00 81 1011.9
20260503202903 64 235 1.0 3.0 0.00 0.00 0.00 81 1011.8
20260503201903 64 257 2.0 3.0 0.00 0.00 0.00 81 1011.7
20260503201403 65 233 2.0 3.0 0.00 0.00 0.00 80 1011.5
20260503200902 65 237 2.0 3.0 0.00 0.00 0.00 80 1011.4
20260503195403 65 328 0.0 2.0 0.00 0.00 0.00 80 1011.3
20260503194902 65 328 0.0 2.0 0.00 0.00 0.00 80 1011.2
20260503194402 65 288 0.0 2.0 0.00 0.00 0.00 79 1011.2
20260503193903 65 335 1.0 3.0 0.00 0.00 0.00 80 1011.1
20260503192402 65 30 1.0 3.0 0.00 0.00 0.00 80 1010.9
20260503191903 65 74 1.0 3.0 0.00 0.00 0.00 80 1010.8
20260503191403 65 49 3.0 5.0 0.00 0.00 0.00 79 1010.7
20260503190902 65 334 2.0 5.0 0.00 0.00 0.00 79 1010.8
20260503190403 66 94 2.0 5.0 0.00 0.00 0.00 79 1010.8
20260503185903 65 110 1.0 2.0 0.00 0.00 0.00 79 1010.7
20260503185402 65 110 1.0 2.0 0.00 0.00 0.00 80 1010.7
20260503184403 65 73 1.0 3.0 0.00 0.00 0.00 80 1010.8
20260503183402 65 42 1.0 3.0 0.00 0.00 0.00 80 1010.8
20260503181902 66 46 3.0 5.0 0.00 0.00 0.00 79 1010.6
20260503181403 65 64 1.0 3.0 0.00 0.00 0.00 79 1010.5
20260503180902 65 58 2.0 6.0 0.00 0.00 0.00 78 1010.4
20260503180403 66 89 3.0 6.0 0.00 0.00 0.00 78 1010.4
20260503175902 65 82 2.0 3.0 0.00 0.00 0.00 79 1010.4
20260503175403 65 47 5.0 7.0 0.00 0.00 0.00 79 1010.4
20260503174903 66 43 5.0 7.0 0.00 0.00 0.00 79 1010.5
20260503174403 65 73 3.0 5.0 0.00 0.00 0.00 79 1010.6
20260503173403 66 120 3.0 6.0 0.00 0.00 0.00 78 1010.6
20260503172403 66 67 3.0 7.0 0.00 0.00 0.00 79 1010.4
20260503171902 66 88 3.0 7.0 0.00 0.00 0.00 79 1010.4
20260503171402 65 65 5.0 8.0 0.00 0.00 0.00 79 1010.4
20260503170903 65 69 6.0 12.0 0.00 0.00 0.00 79 1010.4
20260503150902 67 38 6.0 10.0 0.00 0.00 0.00 78 1011.2
20260503131403 69 1 7.0 10.0 0.00 0.00 0.00 73 1011.8
20260503130903 68 37 5.0 7.0 0.00 0.00 0.00 74 1011.8
20260503130403 67 24 5.0 8.0 0.00 0.00 0.00 74 1011.9
20260503110403 67 347 5.0 7.0 0.00 0.00 0.00 73 1012.8
20260503090403 66 147 1.0 3.0 0.00 0.00 0.00 77 1013.6
20260503080903 65 284 1.0 3.0 0.00 0.00 0.00 78 1013.7
20260503080403 65 189 4.0 7.0 0.00 0.00 0.00 78 1013.8